Find Shiyan Weixing 7

NORAD ID: 39208 Int'l Des: 2013-037 Owner: CNSA Country: CN operational
LEOCIRCULARRETROGRADESSO

Live Position

Loading 3D Globe...

About Shiyan Weixing 7

Description loading...

Upcoming Passes

Passes for default location (London). Set your location on the main map for personalized predictions.

Altitude History

Loading altitude history...

Two-Line Element Set

1 39208U 13037A 26106.25937046 .00000346 00000-0 62787-4 0 9994
2 39208 98.0900 109.8056 0007584 354.7571 5.3555 14.72213376683090
Epoch: Apr 16, 2026 • Age: 12 hours

Current Status

Altitude 668.6 km
Velocity 7.52 km/s
Sub-Earth Point -26.99°S, 162.56°E
Launch Date Jul 19, 2013
Age 12.7 years
Type other

Technical Details

Classification Payload
Mass 500.00 kg
Dry Mass 500.00 kg
Total Mass 500.00 kg
Length 1.00 m
Diameter 1.00 m
Span 3.00 m
Shape Box + 2 Pan + boom
Manufacturer DFHZ
Bus Type SY
Phase Status In Orbit
Owner/State CNSA/CN

Most Searched